Location: Belfast
(54.5830°N, 5.9330°W)
Time: 06:53:27
(UTC+01:00)

ISS - Pass Details

Date: 14 October 2017
Orbit: 400 x 408 km, 51.6° (Epoch: 24 October)

Event Time Altitude Azimuth Distance (km) Brightness Sun altitude
Rises 19:46:52 0° 273° (W) 2,327 2.2 -12.2°
Reaches altitude 10° 19:50:09 10° 237° (WSW) 1,464 -0.2 -12.7°
Maximum altitude 19:51:14 11° 218° (SW) 1,390 -0.6 -12.9°
Drops below altitude 10° 19:52:18 10° 199° (SSW) 1,463 -0.8 -13.0°
Enters shadow 19:55:34 - 163° (SSE) 2,310 -0.2 -13.5°
